Content
SEND FEEDBACK

Daily
Averages
Monthly
Summary
United States of America

BLOOMINGTON, UTAH


Home > North America > United States > Utah
Elevation: 2937 feet     Latitude: 37 09N     Longitude: 114 01W

WEATHER
 
SELECT A DAY
Number of Records: 433,426;   Date Range: 1/1/95 - 8/12/14
 
SHARE

PRINT THIS DATA

[ ← Previous Day ]
WEATHER ALMANAC - JANUARY 31, 2013
[ Next Day → ]
[ °C ]   °F
Weather ElementAverageHighLow
Temperature41.2 °F57.2 °F (3:35 pm)30.2 °F (6:55 am)
Dewpoint28.5 °F32 °F (8:35 pm)24.8 °F (7:55 am)
Humidity63.2 %87 % (8:55 am)33 % (3:55 pm)
Barometer30.32 in30.39 in (9:55 am)30.26 in (5:35 pm)
Wind Speed1.4 mph5.8 mph (8:15 am)
Weather ElementAverage
Visibility10 mi
Wind DirectionENE (77.3 °)

Weather ElementTotal
Precipitation---
Heating Degree Days21.3 (Base 65)
Averaged from 64 records on January 31, 2013
WEATHER CONDITIONS BREAKOUT
WIND DIRECTION BREAKOUT
WEATHER BY HOUR - JANUARY 31, 2013
[ °C ]   °F
Local TimeTemperatureDewpointHumidityBarometerVisibilityWind DirectionWind SpeedGust SpeedPrecipitationEventsConditions
12:35 AM37.4 °F28.4 °F70 %30.33 in8.0 miCalmClear
12:55 AM35.6 °F26.6 °F70 %30.33 in10.0 miSE (130°)3.5 mphClear
1:15 AM35.6 °F28.4 °F75 %30.33 in10.0 miCalmClear
1:35 AM33.8 °F26.6 °F75 %30.34 in10.0 miCalmClear
1:55 AM35.6 °F28.4 °F75 %30.34 in10.0 miCalmClear
2:15 AM35.6 °F28.4 °F75 %30.34 in10.0 miCalmClear
2:35 AM33.8 °F26.6 °F75 %30.35 in10.0 miSSE (150°)3.5 mphClear
2:55 AM33.8 °F26.6 °F75 %30.34 in10.0 miSouth (180°)3.5 mphClear
3:15 AM33.8 °F26.6 °F75 %30.34 in10.0 miCalmClear
3:35 AM33.8 °F26.6 °F75 %30.34 in10.0 miCalmClear
3:55 AM33.8 °F26.6 °F75 %30.34 in10.0 miNNE (30°)3.5 mphClear
4:15 AM33.8 °F26.6 °F75 %30.34 in10.0 miCalmClear
4:35 AM32.0 °F26.6 °F80 %30.34 in10.0 miCalmClear
4:55 AM33.8 °F26.6 °F75 %30.34 in10.0 miCalmClear
5:35 AM32.0 °F26.6 °F80 %30.35 in10.0 miSSW (210°)3.5 mphClear
5:55 AM33.8 °F26.6 °F75 %30.35 in10.0 miCalmClear
6:15 AM33.8 °F26.6 °F75 %30.36 in10.0 miCalmClear
6:35 AM33.8 °F26.6 °F75 %30.36 in10.0 miCalmClear
6:55 AM30.2 °F26.6 °F86 %30.36 in10.0 miCalmClear
7:15 AM30.2 °F26.6 °F86 %30.36 in10.0 miCalmClear
7:35 AM30.2 °F26.6 °F86 %30.37 in10.0 miNNW (340°)4.6 mphClear
7:55 AM30.2 °F24.8 °F80 %30.37 in10.0 miCalmClear
8:15 AM30.2 °F26.6 °F86 %30.38 in10.0 miSouth (180°)5.8 mphClear
8:35 AM30.2 °F26.6 °F86 %30.38 in10.0 miCalmClear
8:55 AM32.0 °F28.4 °F87 %30.38 in10.0 miCalmClear
9:15 AM33.8 °F28.4 °F81 %30.38 in10.0 miSouth (170°)3.5 mphClear
9:35 AM35.6 °F28.4 °F75 %30.38 in10.0 miSouth (190°)4.6 mphClear
9:55 AM37.4 °F28.4 °F70 %30.39 in10.0 miCalmClear
10:15 AM39.2 °F28.4 °F65 %30.39 in10.0 miCalmClear
10:35 AM39.2 °F28.4 °F65 %30.39 in10.0 miCalmClear
10:55 AM41.0 °F30.2 °F65 %30.38 in10.0 miNW (320°)4.6 mphClear
11:15 AM42.8 °F30.2 °F61 %30.38 in10.0 miCalmClear
11:35 AM42.8 °F30.2 °F61 %30.37 in10.0 miWNW (300°)3.5 mphClear
11:55 AM44.6 °F30.2 °F57 %30.37 in10.0 miNNW (340°)3.5 mphClear
12:35 PM46.4 °F30.2 °F53 %30.34 in10.0 miCalmClear
12:55 PM48.2 °F30.2 °F50 %30.34 in10.0 miCalmClear
1:15 PM48.2 °F30.2 °F50 %30.32 in10.0 miSSW (210°)4.6 mphClear
1:35 PM51.8 °F30.2 °F44 %30.31 in10.0 miCalmClear
1:55 PM51.8 °F30.2 °F44 %30.31 in10.0 miCalmClear
2:15 PM53.6 °F30.2 °F41 %30.30 in10.0 miCalmClear
2:35 PM53.6 °F30.2 °F41 %30.30 in10.0 miCalmClear
3:15 PM55.4 °F30.2 °F38 %30.29 in10.0 miNNW (330°)3.5 mphClear
3:35 PM57.2 °F30.2 °F36 %30.28 in10.0 miNNW (340°)3.5 mphClear
3:55 PM57.2 °F28.4 °F33 %30.28 in10.0 miCalmClear
4:15 PM57.2 °F28.4 °F33 %30.28 in10.0 miNorth (360°)3.5 mphClear
4:35 PM55.4 °F28.4 °F36 %30.27 in10.0 miNNW (330°)3.5 mphClear
5:15 PM55.4 °F28.4 °F36 %30.27 in10.0 miCalmClear
5:35 PM55.4 °F28.4 °F36 %30.26 in10.0 miCalmClear
5:55 PM53.6 °F28.4 °F38 %30.26 in10.0 miCalmClear
6:15 PM51.8 °F30.2 °F44 %30.26 in10.0 miNNW (330°)3.5 mphClear
6:55 PM50.0 °F28.4 °F43 %30.26 in10.0 miCalmClear
7:35 PM46.4 °F28.4 °F50 %30.26 in10.0 miSouth (170°)4.6 mphClear
7:55 PM44.6 °F30.2 °F57 %30.26 in10.0 miCalmClear
8:15 PM44.6 °F30.2 °F57 %30.26 in10.0 miCalmClear
8:35 PM44.6 °F32.0 °F61 %30.27 in10.0 miCalmClear
8:55 PM42.8 °F32.0 °F66 %30.27 in10.0 miCalmClear
9:15 PM42.8 °F30.2 °F61 %30.27 in10.0 miCalmClear
9:35 PM42.8 °F30.2 °F61 %30.27 in10.0 miCalmClear
9:55 PM41.0 °F30.2 °F65 %30.28 in10.0 miCalmClear
10:15 PM41.0 °F30.2 °F65 %30.29 in10.0 miCalmClear
10:35 PM41.0 °F30.2 °F65 %30.29 in10.0 miCalmClear
11:15 PM39.2 °F28.4 °F65 %30.29 in10.0 miEast (100°)4.6 mphClear
11:35 PM41.0 °F28.4 °F61 %30.29 in10.0 miESE (110°)3.5 mphClear
11:55 PM39.2 °F28.4 °F65 %30.30 in10.0 miSE (130°)4.6 mphClear
Hourly data recorded from KSGU, located miles away from Bloomington, Utah







STORIES FROM OUR PARTNERS